Location: Blanice
(49.1009°N, 14.0729°E)
Time: 22:36:13
(UTC+00:00)

Daily predictions for brighter satellites

Satellite Brightness Start Highest point End
(mag) Time Altitude Azimuth Time Altitude Azimuth Time Altitude Azimuth
Cosmos 2279 Rocket 4.0 16:56:23 10° N 17:02:41 74° E 17:08:55 10° SSE
Cosmos 2369 3.7 16:58:39 10° SSW 17:04:20 72° ESE 17:10:02 10° NNE
SL-08 RB Rocket 4.2 17:00:16 10° S 17:04:50 68° WSW 17:09:29 10° NNW
Cosmos 1733 Rocket 3.2 17:00:59 10° S 17:05:20 57° E 17:09:43 10° NNE
BREEZE-M DEB (TANK) 4.2 17:01:41 10° SSW 17:05:52 50° SE 17:20:55 10° ENE
Cosmos 1844 Rocket 3.9 17:01:27 10° N 17:06:01 24° NE 17:10:33 10° E
CZ-4B R/B 4.3 17:03:03 10° S 17:07:20 48° W 17:11:30 10° NNW
COBE Rocket 4.2 17:04:03 10° SE 17:08:37 44° ENE 17:13:05 10° N
Cosmos 2221 Rocket 3.6 17:04:52 10° N 17:09:23 67° ENE 17:13:55 10° SSE
Cosmos 2278 4.1 17:04:54 10° S 17:10:14 43° ESE 17:15:34 10° NE
SL-16 R/B 3.3 17:07:08 10° SSE 17:11:23 22° ESE 17:15:39 10° NE
PAYLOAD B 4.2 17:08:25 10° SSE 17:13:53 73° ENE 17:19:23 10° NNW
CZ-4B DEB 4.3 17:09:50 10° SSE 17:15:18 87° WSW 17:20:50 10° NNW
SKYMED 3 4.5 17:11:34 10° NNE 17:15:39 59° E 17:19:43 10° S
BREEZE-M DEB (TANK) 2.8 17:17:18 10° W 17:19:22 41° SSW 17:22:18 10° SE
COSMO-SKYMED 1 2.6 17:20:49 10° NNE 17:25:12 88° ESE 17:29:33 10° SSW
Cosmos 2263 Rocket 2.4 17:20:03 10° NNW 17:25:46 82° WSW 17:31:28 10° SSE
Meteor 1-24 Rocket 4.3 17:22:35 10° N 17:27:21 32° ENE 17:32:08 10° SE
SJ-6B 4.3 17:26:36 12° E 17:28:32 17° ENE 17:31:03 10° NNE
Cosmos 1437 Rocket 3.5 17:27:21 10° SSE 17:30:33 27° E 17:33:46 10° NNE
Spot 1 4.0 17:26:31 10° NNE 17:30:42 60° ESE 17:34:42 10° S
ASTEX 1 3.4 17:26:12 10° N 17:31:13 88° E 17:36:13 10° S
HJ-1C 3.4 17:29:24 10° SSE 17:32:25 47° ENE 17:35:26 10° N
Cosmos 1741 Rocket 4.1 17:28:12 10° SSW 17:33:30 89° WNW 17:38:48 10° NNE
Feng Yun 1-1 Rocket 4.4 17:30:07 10° SE 17:35:21 50° ENE 17:40:33 10° N
USA 267 3.5 17:29:01 10° SE 17:35:33 71° SW 17:42:07 10° WNW
IRIDIUM 104 4.4 17:30:40 10° SSE 17:35:46 58° E 17:40:54 10° N
Cosmos 1814 Rocket 4.0 17:31:57 10° NNW 17:37:14 81° ENE 17:42:25 10° SSE
SL-4 R/B 2.6 17:33:48 10° WNW 17:38:10 61° SSW 17:42:26 12° SE
Cosmos 2084 Rocket 3.6 17:37:01 10° NW 17:40:43 45° NE 17:43:22 18° ESE
Cosmos 2208 Rocket 4.3 17:36:40 10° NNW 17:41:57 52° ENE 17:47:14 10° SE
Cosmos 1805 3.9 17:38:13 10° SSW 17:42:02 60° WNW 17:45:54 10° N
Cosmos 2227 4.2 17:37:26 10° NNW 17:43:06 85° ENE 17:48:44 10° SSE
Cosmos 1242 Rocket 4.0 17:40:01 10° SW 17:43:23 40° WNW 17:46:46 10° N
IRIDIUM 114 4.3 17:39:43 10° S 17:44:53 69° E 17:50:06 10° N
Okean-O 3.7 17:42:55 16° ESE 17:45:19 25° ENE 17:48:58 10° N
Cosmos 489 Rocket 4.5 17:40:30 10° S 17:46:47 68° ESE 17:53:04 10° NNE
ISS -1.4 17:45:14 10° W 17:47:49 20° SW 17:50:22 10° S
CZ-4 R/B 1.4 17:43:52 10° SSE 17:47:58 63° ENE 17:52:08 10° N
Cosmos 1697 Rocket 4.3 17:43:50 10° WSW 17:48:59 36° NW 17:54:10 10° NNE
IGS 5A 4.4 17:48:12 19° ESE 17:50:14 28° ENE 17:53:47 10° N
Meteor 1-12 Rocket 4.3 17:45:12 10° S 17:51:08 67° E 17:57:07 10° NNE
BREEZE M DEB (TANK) 3.7 17:45:50 10° SSW 17:51:33 25° SSE 17:53:02 20° ESE
Cosmos 1908 Rocket 3.5 17:49:23 10° S 17:53:38 64° E 17:57:57 10° NNE
OBJECT-B 1.5 17:54:14 24° NE 17:54:14 24° NE 17:56:00 10° NNE
IRIDIUM 103 4.3 17:48:49 10° S 17:54:01 82° E 17:59:16 10° N
Meteor 2-21 4.4 17:48:14 10° S 17:54:16 90° E 18:00:21 10° N
Cosmos 2360 Rocket 3.2 17:51:36 10° SSE 17:55:59 24° ESE 18:00:22 10° NE
USA 81 4.4 17:52:53 10° N 17:57:53 41° ENE 18:02:39 11° SE
Cosmos 1766 3.4 17:57:57 10° SSW 18:01:52 74° WNW 18:05:50 10° N
Cosmos 1782 Rocket 3.8 17:57:47 10° SSE 18:01:52 42° E 18:06:01 10° NNE
Cosmos 1025 Rocket 3.3 18:01:33 10° N 18:05:41 43° ENE 18:07:57 23° SE
YAOGAN 1 3.0 18:02:01 10° S 18:06:17 63° WSW 18:10:36 10° NNW
Cosmos 2026 Rocket 4.1 18:02:08 10° SSE 18:07:55 50° E 18:13:44 10° NNE
ATLAS 2AS CENTAUR R/B 4.4 18:02:25 10° NW 18:08:26 25° N 18:14:11 10° NE
Cosmos 968 Rocket 3.4 18:03:30 10° SSW 18:08:43 70° ESE 18:13:56 10° NNE
Okean O Rocket 1.9 18:05:46 10° S 18:10:06 70° WSW 18:14:31 10° NNW
Lacrosse 4 Rocket 1.9 18:09:50 10° S 18:13:34 35° ESE 18:13:56 34° ESE
Meteor 2-5 Rocket 3.6 18:09:50 10° N 18:15:24 85° E 18:20:57 10° SSE
Nadezhda 4 Rocket 4.2 18:09:29 10° SSW 18:15:50 78° W 18:22:10 10° N
CSL-04 Rocket 3.7 18:13:27 18° SE 18:17:17 57° ENE 18:22:37 10° N
Meteor 1-15 Rocket 4.1 18:11:59 10° S 18:17:34 89° ESE 18:23:10 10° NNE
Cosmos 1553 Rocket 4.4 18:12:25 10° N 18:18:29 44° ENE 18:21:53 25° SE
USA 186 1.8 18:22:41 56° ESE 18:23:10 65° ENE 18:26:31 10° N
Cosmos 1726 4.1 18:20:55 10° SW 18:24:10 30° WNW 18:27:28 10° N
Cosmos 2322 Rocket 2.2 18:19:05 10° S 18:24:38 56° ESE 18:30:13 10° NE
Cosmos 2237 4.2 18:19:39 10° S 18:25:13 59° ESE 18:30:50 10° NE
Landsat 7 4.1 18:25:23 37° ESE 18:26:38 46° ENE 18:31:09 10° N
SPOT 1/Viking Rocket 4.4 18:27:16 30° ENE 18:27:41 30° ENE 18:32:08 10° N
Cosmos 1470 2.6 18:24:49 10° S 18:28:40 89° W 18:32:32 10° N
CZ-4B R/B 4.4 18:23:40 10° S 18:28:45 42° W 18:33:58 10° NNW
deb Chang Zheng 4 4.2 18:29:32 34° NE 18:29:32 34° NE 18:32:59 10° N
Cosmos 1975 Rocket 2.9 18:26:21 10° N 18:30:48 81° E 18:33:09 27° SSE
Cosmos 1980 Rocket 3.8 18:26:02 10° WSW 18:31:07 34° NW 18:36:13 10° NNE
NOSS 3-3 (A) 4.3 18:27:20 10° S 18:32:22 35° ESE 18:32:26 35° ESE
NOSS 3-3 (C) 4.3 18:27:28 10° S 18:32:21 35° ESE 18:32:21 35° ESE
Ariane Rocket 4.3 18:36:14 23° NE 18:36:14 23° NE 18:39:49 10° N
CRYOSAT 2 4.2 18:34:18 16° S 18:38:18 82° E 18:43:14 10° N
Cosmos 2292 Rocket 4.1 18:33:55 10° SSW 18:38:54 59° W 18:42:43 10° N
USA 215 3.7 18:36:54 15° NE 18:42:20 58° NNW 18:48:42 10° W
Aureole 1 Rocket 4.4 18:35:40 10° S 18:42:27 41° ESE 18:47:59 10° NE
IRS-1C Rocket 4.0 18:43:42 32° SSE 18:46:14 83° ENE 18:51:31 10° NNW
Cosmos 1844 Rocket 2.7 18:44:52 10° NNW 18:50:35 81° WSW 18:52:59 36° SSE
SL-16 R/B 2.5 18:49:19 10° SW 18:54:57 68° WNW 19:00:39 10° NNE
Landsat 5 3.7 18:50:39 10° NNE 18:55:10 80° WNW 18:59:36 10° SSW
Cosmos 1943 Rocket 4.3 18:54:29 10° N 18:56:34 12° NNE 18:57:29 12° NE
Cosmos 1092 Rocket 4.3 18:51:06 10° SSW 18:57:22 67° WNW 19:03:37 10° N
Resurs 01 Rocket 2.3 19:01:19 41° NNE 19:01:19 41° NNE 19:04:35 10° N
Terra 4.1 19:03:49 12° NNE 19:03:49 12° NNE 19:04:28 10° NNE
SJ-6B 3.6 19:02:07 42° SW 19:02:45 47° W 19:06:27 10° NNW
H-2A R/B 3.4 19:07:12 36° N 19:07:12 36° N 19:09:36 10° N
Cosmos 2278 Rocket 3.4 19:01:05 10° NNW 19:05:41 27° NE 19:05:41 27° NE
Resurs 1-3 3.9 19:11:26 60° SW 19:11:50 63° W 19:16:12 10° NNW
IRS-1A Rocket 4.2 19:15:25 65° ENE 19:15:29 65° ENE 19:21:15 10° N
MetOp-A 4.4 19:17:19 40° NNW 19:17:19 40° NNW 19:19:57 10° NNW
SL-4 R/B 4.4 19:14:05 10° W 19:17:06 18° SW 19:17:51 17° SSW
Cosmos 921 Rocket 4.2 19:12:45 10° NNW 19:15:35 34° NNE 19:15:35 34° NNE
Okean-O 3.7 19:20:29 35° SW 19:21:35 41° W 19:25:49 10° NNW
CZ-4 R/B 4.4 19:20:53 10° SW 19:23:18 15° W 19:25:45 10° NW
Cosmos 1486 Rocket 4.2 19:18:54 10° SSW 19:24:12 71° WNW 19:29:34 10° NNE
Cosmos 1844 4.2 19:19:35 10° NW 19:25:00 53° WSW 19:26:12 44° SSW
Cosmos 2266 Rocket 4.3 19:26:59 52° NE 19:26:59 52° NE 19:32:07 10° NNE
DNEPR-1 R/B 4.2 19:23:59 10° SW 19:28:47 68° NW 19:30:36 42° NNE
S3M 3.8 19:23:35 10° N 19:29:51 85° E 19:30:10 81° SE
Cosmos 2333 Rocket 4.5 19:36:34 12° NNE 19:36:34 12° NNE 19:36:55 10° NNE
Cosmos 773 Rocket 4.1 19:26:08 10° NNW 19:31:00 74° NW 19:31:00 74° NW
Meteor 1-21 Rocket 4.2 19:26:27 10° NNW 19:31:34 76° N 19:31:34 76° N
Cosmos 2360 Rocket 2.5 19:33:54 10° SW 19:39:30 65° WNW 19:45:08 10° NNE
Lacrosse 4 Rocket 3.6 19:48:30 10° WSW 19:50:17 21° W 19:50:17 21° W
ATLAS 2AS CENTAUR R/B 3.6 19:54:43 10° NW 20:01:26 38° NNE 20:01:35 38° NNE
Cosmos 2322 Rocket 3.9 20:03:57 10° WSW 20:09:00 31° NW 20:14:05 10° NNE
NOSS 3-4 (A) 3.9 20:05:46 10° NW 20:12:04 75° WNW 20:12:04 75° WNW
NOSS 3-4 (C) 3.9 20:05:52 10° NW 20:12:10 75° WNW 20:12:10 75° WNW
Ariane Rocket 4.4 20:16:25 35° NW 20:16:25 35° NW 20:19:29 10° NNW
USA 215 4.0 20:24:15 44° NNE 20:24:46 45° N 20:30:54 10° WNW
USA 281 3.8 20:27:40 51° N 20:27:40 51° N 20:32:33 10° NNW
Resurs 01 Rocket 4.4 20:38:52 16° WNW 20:38:52 16° WNW 20:40:19 10° NW
Terra 4.3 20:42:43 17° NNW 20:42:43 17° NNW 20:43:48 10° NNW
Cosmos 1943 Rocket 4.1 20:36:44 10° NNW 20:38:59 23° N 20:38:59 23° N
Cosmos 2278 Rocket 3.9 20:44:48 10° NNW 20:47:32 29° NW 20:47:32 29° NW
Cosmos 2369 Rocket 4.4 20:56:43 10° NNW 20:58:48 19° N 20:58:48 19° N
Cosmos 2333 Rocket 4.5 21:18:31 20° N 21:18:31 20° N 21:20:49 10° NNE
ATLAS 2AS CENTAUR R/B 4.3 21:45:54 10° NW 21:49:00 28° NW 21:49:00 28° NW
